Location: Julian California
(33.0790°N, 116.6010°W)
Time: 05:42:35
(UTC-07:00)

Meteor 1-15 Rocket - Pass Details

Date: 19 May 2017
Orbit: 840 x 907 km, 81.2° (Epoch: 22 July)

Event Time Altitude Azimuth Distance (km) Brightness Sun altitude
Rises 22:38:48 0° 350° (N) 3,422 8.3 -29.2°
Reaches altitude 10° 22:41:14 10° 350° (N) 2,475 7.4 -29.5°
Enters shadow 22:46:17 71° 323° (NW) 887 4.3 -30.0°
